Tracking 31027 objects as of 19-Jul-2025
HD Live streaming from Space Station
objects crossing your sky now

THORAD AGENA D DEB

Track THORAD AGENA D DEB now!
10-day predictions


NORAD ID: 18513
Int'l Code: 1970-025PN
Perigee: 776.0 km
Apogee: 847.0 km
Inclination: 99.8 °
Period: 101.0 minutes
Semi major axis: 7182 km
RCS: 0.0038 m2 (small)
Launch date: April 8, 1970
Source: United States (US)
Launch site: AIR FORCE WESTERN TEST RANGE (AFWTR)

Note: This is SATELLITE DEBRIS
Your satellite tracking list
STARLINK-31879
Track 1 satellite(s)




NASA's NSSDC Master Catalog

Two Line Element Set (TLE):
1 18513U 70025PN  25198.10596770  .00001489  00000-0  63536-3 0  9990
2 18513  99.7527  63.1803 0049444 301.1378 222.2222 14.26237631 76932
Source of the keplerian elements: AFSPC